M I D A S
Marine Information and Data Acquisition System
Tripno 474 of the Zeeleeuw from 2002-04-25 11:45:00 to 2002-04-25 15:45:00
Back to CruiseResearch ActivitiesStationsMapUnderway DataData graphs

EquipmentUnitsComments
TimeDGPSUTC
LatitudeDGPSDM.mWGS84
LongitudeDGPSDM.mWGS84
SpeedMeteo Stationm/sRelative wind speed
DirectionMeteo StationdegRelative wind direction
TemperatureMeteo Stationdeg CelciusAir temperature
PressureMeteo StationPaAtmospheric pressure
HumidityMeteo Station%Relative humidity
Missing or incorrect values are displayed as -999
Metereological data collected by the RV Zeeleeuw from 2002-04-25 11:45:00 to 2002-04-25 15:45:00
                                                                                    Next 1000 lines
Time Latitude Longitude Speed Direction Temperature Pressure Humidity
2002-04-25 11:45:11 51°13.686 2°55.906 5.3 34 11.6 102230 82
2002-04-25 11:45:16 51°13.686 2°55.907 5 39 11.6 102230 82
2002-04-25 11:45:20 51°13.685 2°55.907 7.8 29 11.6 102240 81
2002-04-25 11:45:26 51°13.685 2°55.906 7.5 29 11.6 102240 81
2002-04-25 11:45:30 51°13.685 2°55.906 7.3 35 11.6 102240 81
2002-04-25 11:45:35 51°13.685 2°55.905 7.6 32 11.6 102240 81
2002-04-25 11:45:41 51°13.684 2°55.903 7.4 34 11.6 102230 81
2002-04-25 11:45:47 51°13.685 2°55.9 7.1 26 11.6 102230 81
2002-04-25 11:45:51 51°13.686 2°55.897 7 36 11.6 102240 81
2002-04-25 11:45:56 51°13.686 2°55.893 6.1 41 11.6 102240 81
2002-04-25 11:46:01 51°13.687 2°55.889 6 38 11.6 102240 81
2002-04-25 11:46:07 51°13.687 2°55.883 4.9 48 11.6 102240 81
2002-04-25 11:46:12 51°13.687 2°55.878 4.8 316 11.6 102240 81
2002-04-25 11:46:17 51°13.687 2°55.872 7.3 18 11.6 102240 81
2002-04-25 11:46:22 51°13.687 2°55.865 6.2 35 11.5 102240 81
2002-04-25 11:46:27 51°13.687 2°55.858 5.8 27 11.5 102240 81
2002-04-25 11:46:32 51°13.688 2°55.851 7.4 29 11.6 102230 81
2002-04-25 11:46:37 51°13.689 2°55.844 8 24 11.6 102230 81
2002-04-25 11:46:42 51°13.689 2°55.837 8.5 30 11.6 102240 81
2002-04-25 11:46:47 51°13.689 2°55.83 7.7 34 11.6 102240 81
2002-04-25 11:46:52 51°13.689 2°55.823 6.4 41 11.5 102230 81
2002-04-25 11:46:57 51°13.689 2°55.816 5.5 40 11.5 102230 81
2002-04-25 11:47:02 51°13.69 2°55.809 6.5 39 11.5 102230 81
2002-04-25 11:47:07 51°13.69 2°55.803 5.7 43 11.5 102230 81
2002-04-25 11:47:12 51°13.69 2°55.796 6 26 11.6 102230 81
2002-04-25 11:47:17 51°13.691 2°55.79 5.4 23 11.6 102230 81
2002-04-25 11:47:22 51°13.69 2°55.784 5.2 14 11.6 102230 81
2002-04-25 11:47:26 51°13.69 2°55.779 5.3 11 11.6 102230 81
2002-04-25 11:47:31 51°13.69 2°55.774 5.9 18 11.6 102230 81
2002-04-25 11:47:36 51°13.69 2°55.768 6.5 26 11.6 102230 81
2002-04-25 11:47:41 51°13.69 2°55.763 6.4 32 11.6 102230 81
2002-04-25 11:47:46 51°13.69 2°55.758 7.7 30 11.6 102230 81
2002-04-25 11:47:51 51°13.691 2°55.754 4.8 27 11.6 102230 81
2002-04-25 11:47:56 51°13.691 2°55.752 4.5 14 11.6 102230 81
2002-04-25 11:48:01 51°13.691 2°55.751 5 17 11.5 102230 81
2002-04-25 11:48:06 51°13.692 2°55.753 4.1 348 11.5 102230 81
2002-04-25 11:48:11 51°13.693 2°55.757 1.6 343 11.5 102240 81
2002-04-25 11:48:16 51°13.695 2°55.761 0.9 327 11.5 102240 81
2002-04-25 11:48:21 51°13.697 2°55.764 3.5 286 11.5 102230 81
2002-04-25 11:48:26 51°13.699 2°55.767 1.1 299 11.5 102230 81
2002-04-25 11:48:31 51°13.701 2°55.77 2 334 11.5 102230 81
2002-04-25 11:48:36 51°13.702 2°55.772 1.2 321 11.5 102230 81
2002-04-25 11:48:41 51°13.703 2°55.773 1.3 321 11.5 102230 81
2002-04-25 11:48:46 51°13.703 2°55.774 0.7 302 11.5 102230 81
2002-04-25 11:48:51 51°13.703 2°55.773 1.7 325 11.5 102220 81
2002-04-25 11:48:56 51°13.702 2°55.773 0.9 332 11.5 102220 81
2002-04-25 11:49:01 51°13.7 2°55.772 2.9 344 11.5 102230 81
2002-04-25 11:49:07 51°13.698 2°55.77 3.6 354 11.5 102230 81
2002-04-25 11:49:12 51°13.696 2°55.768 1.9 339 11.5 102230 81
2002-04-25 11:49:17 51°13.694 2°55.766 1.1 346 11.5 102230 81
2002-04-25 11:49:22 51°13.692 2°55.763 3.6   11.4 102230 81
2002-04-25 11:49:27 51°13.691 2°55.761 2.1 345 11.4 102230 81
2002-04-25 11:49:32 51°13.689 2°55.76 1.6 328 11.4 102230 81
2002-04-25 11:49:37 51°13.689 2°55.759 2.4 325 11.4 102230 81
2002-04-25 11:49:42 51°13.689 2°55.759 4.6 317 11.4 102220 81
2002-04-25 11:49:47 51°13.691 2°55.76 4.2 288 11.4 102220 81
2002-04-25 11:49:51 51°13.693 2°55.761 5.3 278 11.5 102230 81
2002-04-25 11:49:57 51°13.698 2°55.761 5 270 11.5 102230 81
2002-04-25 11:50:02 51°13.703 2°55.761 5.4 269 11.5 102220 81
2002-04-25 11:50:07 51°13.708 2°55.758 5.7 257 11.5 102220 81
2002-04-25 11:50:11 51°13.713 2°55.755 6 251 11.5 102220 81
2002-04-25 11:50:16 51°13.719 2°55.75 7.2 240 11.5 102220 81
2002-04-25 11:50:21 51°13.724 2°55.744 7.1 238 11.5 102220 81
2002-04-25 11:50:26 51°13.73 2°55.738 5.6 248 11.5 102220 81
2002-04-25 11:50:31 51°13.736 2°55.731 6.6 264 11.5 102210 81
2002-04-25 11:50:36 51°13.742 2°55.725 6.6 264 11.5 102210 81
2002-04-25 11:50:41 51°13.748 2°55.718 6.2 243 11.6 102210 81
2002-04-25 11:50:46 51°13.754 2°55.71 6.8 237 11.6 102210 81
2002-04-25 11:50:52 51°13.761 2°55.7 8.5 248 11.6 102210 81
2002-04-25 11:50:56 51°13.766 2°55.693 6.4 231 11.6 102210 81
2002-04-25 11:51:01 51°13.773 2°55.684 6.6 238 11.6 102200 81
2002-04-25 11:51:06 51°13.779 2°55.676 7.5 238 11.6 102200 81
2002-04-25 11:51:11 51°13.786 2°55.667 6.4 253 11.6 102210 81
2002-04-25 11:51:16 51°13.793 2°55.658 6 249 11.6 102210 81
2002-04-25 11:51:21 51°13.8 2°55.65 6.1 255 11.6 102210 81
2002-04-25 11:51:26 51°13.808 2°55.643 7.1 248 11.6 102210 81
2002-04-25 11:51:31 51°13.815 2°55.637 7.5 240 11.7 102210 81
2002-04-25 11:51:36 51°13.824 2°55.631 8.1 239 11.7 102210 81
2002-04-25 11:51:41 51°13.832 2°55.625 10.2 240 11.7 102210 81
2002-04-25 11:51:46 51°13.84 2°55.619 8.1 249 11.7 102210 81
2002-04-25 11:51:51 51°13.849 2°55.612 9 249 11.7 102210 80
2002-04-25 11:51:56 51°13.857 2°55.606 9.2 256 11.7 102210 80
2002-04-25 11:52:01 51°13.866 2°55.6 7.4 253 11.7 102210 80
2002-04-25 11:52:06 51°13.875 2°55.595 6.4 244 11.7 102210 80
2002-04-25 11:52:11 51°13.884 2°55.589 8.2 241 11.7 102210 80
2002-04-25 11:52:16 51°13.892 2°55.582 8.2 251 11.7 102210 80
2002-04-25 11:52:21 51°13.901 2°55.576 7.7 259 11.7 102210 80
2002-04-25 11:52:26 51°13.91 2°55.57 6.8 246 11.7 102210 80
2002-04-25 11:52:31 51°13.919 2°55.564 7.6 254 11.7 102210 80
2002-04-25 11:52:36 51°13.928 2°55.559 8.2 248 11.7 102210 80
2002-04-25 11:52:41 51°13.937 2°55.553 8.2 249 11.7 102210 80
2002-04-25 11:52:46 51°13.946 2°55.547 7.8 244 11.7 102210 80
2002-04-25 11:52:50 51°13.954 2°55.542 7.3 249 11.7 102210 80
2002-04-25 11:52:56 51°13.965 2°55.535 6.8 252 11.7 102210 80
2002-04-25 11:53:01 51°13.974 2°55.528 7.5 243 11.7 102210 81
2002-04-25 11:53:06 51°13.983 2°55.522 10.3 259 11.7 102210 81
2002-04-25 11:53:11 51°13.992 2°55.516 8.8 256 11.7 102210 81
2002-04-25 11:53:16 51°14 2°55.51 7.4 253 11.7 102210 81
2002-04-25 11:53:21 51°14.009 2°55.504 6.9 231 11.7 102220 81
2002-04-25 11:53:26 51°14.018 2°55.497 8.9 242 11.7 102220 81
2002-04-25 11:53:31 51°14.027 2°55.49 9.8 255 11.7 102220 81
2002-04-25 11:53:36 51°14.036 2°55.484 9.8 255 11.7 102220 81
2002-04-25 11:53:41 51°14.046 2°55.477 10.5 254 11.7 102210 81
2002-04-25 11:53:46 51°14.055 2°55.47 9.7 259 11.7 102210 81
2002-04-25 11:53:51 51°14.064 2°55.463 9.7 262 11.7 102220 81
2002-04-25 11:53:56 51°14.073 2°55.457 8.5 253 11.7 102220 81
2002-04-25 11:54:01 51°14.082 2°55.45 9.2 257 11.7 102210 81
2002-04-25 11:54:06 51°14.091 2°55.444 10.1 261 11.7 102210 81
2002-04-25 11:54:11 51°14.101 2°55.438 10 259 11.7 102210 81
2002-04-25 11:54:16 51°14.11 2°55.431 9.5 258 11.7 102210 81
2002-04-25 11:54:21 51°14.119 2°55.424 9.7 260 11.7 102210 81
2002-04-25 11:54:26 51°14.128 2°55.418 9.7 263 11.7 102210 81
2002-04-25 11:54:31 51°14.137 2°55.412 9.5 258 11.7 102210 81
2002-04-25 11:54:36 51°14.146 2°55.405 8.6 257 11.7 102210 81
2002-04-25 11:54:41 51°14.155 2°55.398 9.4 256 11.7 102210 81
2002-04-25 11:54:46 51°14.163 2°55.391 9.5 254 11.7 102210 81
2002-04-25 11:54:50 51°14.171 2°55.386 10.5 254 11.7 102210 82
2002-04-25 11:54:55 51°14.179 2°55.378 9.7 253 11.7 102210 82
2002-04-25 11:55:01 51°14.189 2°55.368 9.2 254 11.7 102210 82
2002-04-25 11:55:06 51°14.197 2°55.36 9.1 253 11.7 102210 82
2002-04-25 11:55:11 51°14.205 2°55.351 9.2 252 11.7 102210 81
2002-04-25 11:55:16 51°14.213 2°55.341 9.8 251 11.7 102210 81
2002-04-25 11:55:21 51°14.221 2°55.332 9.6 250 11.7 102210 81
2002-04-25 11:55:26 51°14.228 2°55.321 9.5 247 11.7 102210 81
2002-04-25 11:55:31 51°14.236 2°55.31 9.3 241 11.6 102210 81
2002-04-25 11:55:35 51°14.242 2°55.301 8.9 242 11.6 102210 81
2002-04-25 11:55:41 51°14.251 2°55.286 10.5 249 11.6 102210 81
2002-04-25 11:55:46 51°14.259 2°55.274 10.6 247 11.6 102210 81
2002-04-25 11:55:51 51°14.266 2°55.261 10.9 246 11.6 102210 81
2002-04-25 11:55:56 51°14.274 2°55.248 10.5 245 11.6 102210 81
2002-04-25 11:56:01 51°14.281 2°55.235 10.1 242 11.6 102210 82
2002-04-25 11:56:06 51°14.289 2°55.221 10.1 239 11.6 102210 82
2002-04-25 11:56:11 51°14.296 2°55.208 10.1 241 11.6 102210 81
2002-04-25 11:56:16 51°14.304 2°55.193 10 240 11.6 102210 81
2002-04-25 11:56:21 51°14.31 2°55.179 11.5 240 11.6 102210 81
2002-04-25 11:56:26 51°14.317 2°55.164 11.2 239 11.6 102210 81
2002-04-25 11:56:31 51°14.324 2°55.149 11.4 240 11.6 102210 82
2002-04-25 11:56:36 51°14.331 2°55.134 10.7 242 11.6 102210 82
2002-04-25 11:56:41 51°14.337 2°55.118 11.5 238 11.6 102220 82
2002-04-25 11:56:46 51°14.344 2°55.103 11.9 238 11.6 102220 82
2002-04-25 11:56:51 51°14.35 2°55.087 11.3 236 11.6 102210 82
2002-04-25 11:56:56 51°14.357 2°55.072 11.6 235 11.6 102210 82
2002-04-25 11:57:01 51°14.363 2°55.056 11.2 237 11.6 102210 82
2002-04-25 11:57:06 51°14.37 2°55.041 10.5 237 11.6 102210 82
2002-04-25 11:57:12 51°14.378 2°55.023 11 236 11.5 102210 82
2002-04-25 11:57:16 51°14.384 2°55.01 10.7 233 11.5 102210 82
2002-04-25 11:57:21 51°14.392 2°54.994 11.4 232 11.5 102220 81
2002-04-25 11:57:26 51°14.4 2°54.978 11.3 229 11.5 102220 81
2002-04-25 11:57:31 51°14.408 2°54.96 11 227 11.5 102220 82
2002-04-25 11:57:36 51°14.415 2°54.942 11.3 226 11.5 102220 82
2002-04-25 11:57:41 51°14.421 2°54.923 11.2 222 11.5 102210 82
2002-04-25 11:57:46 51°14.426 2°54.902 12.2 221 11.5 102210 82
2002-04-25 11:57:51 51°14.43 2°54.881 11.7 221 11.5 102220 82
2002-04-25 11:57:56 51°14.433 2°54.858 11.2 217 11.5 102220 82
2002-04-25 11:58:01 51°14.436 2°54.835 11.5 219 11.5 102220 82
2002-04-25 11:58:06 51°14.438 2°54.812 11.7 220 11.5 102220 82
2002-04-25 11:58:11 51°14.44 2°54.788 12.1 220 11.4 102210 82
2002-04-25 11:58:16 51°14.443 2°54.764 11.7 221 11.4 102210 82
2002-04-25 11:58:21 51°14.445 2°54.739 11.3 222 11.4 102220 82
2002-04-25 11:58:26 51°14.448 2°54.715 11 219 11.4 102220 82
2002-04-25 11:58:30 51°14.45 2°54.695 11.5 219 11.5 102210 82
2002-04-25 11:58:36 51°14.452 2°54.665 11.8 220 11.5 102210 82
2002-04-25 11:58:42 51°14.454 2°54.635 10.8 223 11.4 102220 83
2002-04-25 11:58:46 51°14.456 2°54.615 11.5 219 11.4 102220 83
2002-04-25 11:58:50 51°14.457 2°54.596 11.6 214 11.4 102210 82
2002-04-25 11:58:56 51°14.457 2°54.566 11.4 212 11.4 102210 82
2002-04-25 11:59:01 51°14.455 2°54.542 10.6 206 11.4 102210 83
2002-04-25 11:59:06 51°14.452 2°54.519 9.8 203 11.4 102210 83
2002-04-25 11:59:11 51°14.446 2°54.497 9.9 207 11.4 102210 83
2002-04-25 11:59:16 51°14.44 2°54.476 10.4 204 11.4 102210 83
2002-04-25 11:59:21 51°14.433 2°54.455 9.6 201 11.4 102210 83
2002-04-25 11:59:26 51°14.425 2°54.435 11.2 204 11.4 102210 83
2002-04-25 11:59:31 51°14.417 2°54.414 9.6 205 11.4 102210 83
2002-04-25 11:59:36 51°14.41 2°54.393 10.5 206 11.4 102210 83
2002-04-25 11:59:41 51°14.403 2°54.371 9.9 204 11.4 102210 83
2002-04-25 11:59:46 51°14.396 2°54.349 11.2 207 11.4 102210 83
2002-04-25 11:59:51 51°14.389 2°54.328 10.1 206 11.3 102210 83
2002-04-25 11:59:56 51°14.381 2°54.306 10.3 206 11.3 102210 83
2002-04-25 12:00:01 51°14.374 2°54.285 9.3 207 11.3 102210 83
2002-04-25 12:00:06 51°14.366 2°54.264 10.2 199 11.3 102210 83
2002-04-25 12:00:11 51°14.358 2°54.243 10.8 202 11.3 102210 83
2002-04-25 12:00:16 51°14.35 2°54.223 10.4 205 11.3 102210 83
2002-04-25 12:00:21 51°14.341 2°54.203 9.7 204 11.3 102210 83
2002-04-25 12:00:26 51°14.333 2°54.183 10 205 11.3 102210 83
2002-04-25 12:00:31 51°14.324 2°54.163 10.1 204 11.2 102210 83
2002-04-25 12:00:36 51°14.315 2°54.143 9.2 202 11.2 102210 83
2002-04-25 12:00:41 51°14.306 2°54.124 9.2 204 11.2 102210 84
2002-04-25 12:00:46 51°14.297 2°54.104 9.4 200 11.2 102210 84
2002-04-25 12:00:51 51°14.288 2°54.084 10.1 200 11.2 102210 84
2002-04-25 12:00:56 51°14.279 2°54.064 9 206 11.2 102210 84
2002-04-25 12:01:00 51°14.272 2°54.048 10.5 202 11.1 102210 84
2002-04-25 12:01:06 51°14.262 2°54.024 9.5 203 11.1 102210 84
2002-04-25 12:01:11 51°14.253 2°54.003 10.3 202 11.1 102210 84
2002-04-25 12:01:16 51°14.244 2°53.983 10.5 200 11.1 102210 84
2002-04-25 12:01:20 51°14.238 2°53.967 9.5 202 11.1 102210 84
2002-04-25 12:01:26 51°14.228 2°53.943 10 205 11.1 102210 84
2002-04-25 12:01:31 51°14.219 2°53.922 10.1 204 11.1 102210 84
2002-04-25 12:01:36 51°14.211 2°53.903 10 203 11.1 102210 84
2002-04-25 12:01:41 51°14.202 2°53.882 10.7 204 11 102210 84
2002-04-25 12:01:45 51°14.195 2°53.866 9.9 205 11 102210 84
2002-04-25 12:01:50 51°14.187 2°53.845 9.8 200 11 102210 84
2002-04-25 12:01:56 51°14.177 2°53.821 9.6 202 11 102210 84
2002-04-25 12:02:01 51°14.168 2°53.801 9.1 202 11 102210 84
2002-04-25 12:02:06 51°14.16 2°53.78 10.3 199 11 102210 84
2002-04-25 12:02:11 51°14.151 2°53.759 9.8 203 11 102210 84
2002-04-25 12:02:16 51°14.143 2°53.739 10.3 207 11 102210 84
2002-04-25 12:02:21 51°14.134 2°53.718 9.8 206 10.9 102210 84
2002-04-25 12:02:26 51°14.125 2°53.697 10.3 206 10.9 102210 84
2002-04-25 12:02:31 51°14.116 2°53.676 10.5 202 11 102210 84
2002-04-25 12:02:36 51°14.107 2°53.655 9.6 204 11 102210 84
2002-04-25 12:02:41 51°14.098 2°53.633 9.5 202 10.9 102200 84
2002-04-25 12:02:46 51°14.089 2°53.611 10.8 200 10.9 102200 84
2002-04-25 12:02:51 51°14.08 2°53.589 9.4 208 10.9 102200 84
2002-04-25 12:02:56 51°14.071 2°53.568 10.1 207 10.9 102200 84
2002-04-25 12:03:01 51°14.062 2°53.546 11.1 204 10.9 102210 84
2002-04-25 12:03:06 51°14.052 2°53.525 10.2 205 10.9 102210 84
2002-04-25 12:03:11 51°14.043 2°53.503 10.5 200 10.9 102210 85
2002-04-25 12:03:16 51°14.034 2°53.481 9.5 207 10.9 102210 85
2002-04-25 12:03:21 51°14.025 2°53.459 10.1 206 10.9 102200 84
2002-04-25 12:03:26 51°14.015 2°53.437 11 205 10.9 102200 84
2002-04-25 12:03:31 51°14.006 2°53.415 9.5 206 10.9 102200 85
2002-04-25 12:03:36 51°13.997 2°53.392 10.6 204 10.9 102200 85
2002-04-25 12:03:41 51°13.987 2°53.371 11.2 201 10.9 102210 85
2002-04-25 12:03:46 51°13.978 2°53.349 9.9 203 10.9 102210 85
2002-04-25 12:03:51 51°13.969 2°53.327 9.7 203 10.9 102200 85
2002-04-25 12:03:56 51°13.96 2°53.304 10.3 206 10.9 102200 85
2002-04-25 12:04:01 51°13.95 2°53.282 9.9 206 10.9 102210 85
2002-04-25 12:04:05 51°13.943 2°53.265 10.5 204 10.9 102210 85
2002-04-25 12:04:11 51°13.932 2°53.238 11.2 205 10.9 102210 85
2002-04-25 12:04:16 51°13.924 2°53.215 10.9 205 10.9 102210 85
2002-04-25 12:04:21 51°13.915 2°53.193 9.5 206 10.9 102210 85
2002-04-25 12:04:26 51°13.907 2°53.17 10.1 206 10.9 102210 85
2002-04-25 12:04:31 51°13.898 2°53.147 10.1 207 10.9 102210 85
2002-04-25 12:04:36 51°13.891 2°53.123 10.5 209 10.9 102210 85
2002-04-25 12:04:41 51°13.883 2°53.099 10 211 10.9 102200 85
2002-04-25 12:04:45 51°13.876 2°53.079 10.3 206 10.9 102200 85
2002-04-25 12:04:51 51°13.866 2°53.052 10.6 210 10.9 102210 85
2002-04-25 12:04:56 51°13.858 2°53.029 10.5 209 10.9 102210 85
2002-04-25 12:05:01 51°13.849 2°53.007 11.1 206 10.9 102210 85
2002-04-25 12:05:06 51°13.841 2°52.984 10.7 207 10.9 102210 85
2002-04-25 12:05:11 51°13.832 2°52.962 11.5 209 10.9 102210 85
2002-04-25 12:05:16 51°13.824 2°52.939 11.2 209 10.9 102210 85
2002-04-25 12:05:21 51°13.815 2°52.917 10.6 206 10.9 102210 85
2002-04-25 12:05:26 51°13.807 2°52.894 10.6 210 10.9 102210 85
2002-04-25 12:05:31 51°13.798 2°52.871 10.3 208 10.9 102210 85
2002-04-25 12:05:36 51°13.79 2°52.849 10.1 210 10.9 102210 85
2002-04-25 12:05:41 51°13.782 2°52.826 10 209 11 102200 85
2002-04-25 12:05:46 51°13.773 2°52.803 11 207 11 102200 85
2002-04-25 12:05:51 51°13.765 2°52.78 10.8 209 11 102210 85
2002-04-25 12:05:56 51°13.756 2°52.758 10.6 208 11 102210 85
2002-04-25 12:06:01 51°13.748 2°52.735 11.1 206 11 102200 85
2002-04-25 12:06:06 51°13.739 2°52.712 10.9 206 11 102200 85
2002-04-25 12:06:11 51°13.731 2°52.688 10.8 206 11 102200 85
2002-04-25 12:06:16 51°13.723 2°52.665 10.8 204 11 102200 85
2002-04-25 12:06:21 51°13.715 2°52.642 10.4 204 11 102210 85
2002-04-25 12:06:26 51°13.706 2°52.62 10 209 11 102210 85
2002-04-25 12:06:31 51°13.698 2°52.598 10.9 207 11 102210 85
2002-04-25 12:06:36 51°13.689 2°52.575 9.9 207 11 102210 85
2002-04-25 12:06:41 51°13.681 2°52.553 10.1 205 11 102200 85
2002-04-25 12:06:45 51°13.674 2°52.534 10.7 206 11 102200 85
2002-04-25 12:06:51 51°13.664 2°52.506 9.9 207 10.9 102200 85
2002-04-25 12:06:56 51°13.656 2°52.484 10.1 207 10.9 102200 85
2002-04-25 12:07:01 51°13.647 2°52.461 10.9 208 11 102210 85
2002-04-25 12:07:06 51°13.639 2°52.438 10.3 205 11 102210 85
2002-04-25 12:07:11 51°13.631 2°52.415 11.1 203 11 102200 85
2002-04-25 12:07:16 51°13.622 2°52.392 10.9 202 11 102200 85
2002-04-25 12:07:21 51°13.614 2°52.369 11 204 11 102200 85
2002-04-25 12:07:25 51°13.607 2°52.35 9.6 210 11 102200 85
2002-04-25 12:07:31 51°13.597 2°52.323 10.8 207 10.9 102200 85
2002-04-25 12:07:36 51°13.588 2°52.3 10.3 212 10.9 102200 85
2002-04-25 12:07:41 51°13.58 2°52.278 9.8 206 11 102200 85
2002-04-25 12:07:45 51°13.573 2°52.26 11.2 208 11 102200 85
2002-04-25 12:07:51 51°13.563 2°52.231 9.6 209 11 102200 85
2002-04-25 12:07:56 51°13.554 2°52.207 10.6 209 11 102200 85
2002-04-25 12:08:01 51°13.546 2°52.185 10.1 207 10.9 102200 85
2002-04-25 12:08:06 51°13.537 2°52.162 10.3 209 10.9 102200 85
2002-04-25 12:08:11 51°13.528 2°52.14 10.9 206 10.9 102200 85
2002-04-25 12:08:16 51°13.52 2°52.117 10 208 10.9 102200 85
2002-04-25 12:08:21 51°13.511 2°52.094 10 204 11 102200 85
2002-04-25 12:08:26 51°13.503 2°52.071 10.2 209 11 102200 85
2002-04-25 12:08:31 51°13.494 2°52.049 11.5 209 11 102210 85
2002-04-25 12:08:36 51°13.486 2°52.026 10.7 208 11 102210 85
2002-04-25 12:08:41 51°13.477 2°52.003 10.1 205 11 102200 85
2002-04-25 12:08:46 51°13.468 2°51.98 11.3 207 11 102200 85
2002-04-25 12:08:51 51°13.46 2°51.957 10.2 207 11 102200 85
2002-04-25 12:08:56 51°13.452 2°51.933 11.2 209 11 102200 85
2002-04-25 12:09:01 51°13.443 2°51.91 10.5 207 11 102200 85
2002-04-25 12:09:06 51°13.435 2°51.887 10.3 207 11 102200 85
2002-04-25 12:09:11 51°13.427 2°51.864 10.6 205 11 102200 85
2002-04-25 12:09:16 51°13.418 2°51.841 10.6 204 11 102200 85
2002-04-25 12:09:21 51°13.409 2°51.818 9.8 204 11 102200 85
2002-04-25 12:09:26 51°13.401 2°51.795 10.3 212 11 102200 85
2002-04-25 12:09:31 51°13.392 2°51.773 11 208 11 102200 85
2002-04-25 12:09:36 51°13.384 2°51.75 11.3 206 11 102200 85
2002-04-25 12:09:41 51°13.375 2°51.727 11 203 11 102200 85
2002-04-25 12:09:46 51°13.366 2°51.705 11.2 210 11 102200 85
2002-04-25 12:09:51 51°13.358 2°51.681 10.7 207 11 102210 85
2002-04-25 12:09:56 51°13.35 2°51.659 11.3 205 11 102210 85
2002-04-25 12:10:01 51°13.341 2°51.636 11 206 10.9 102200 85
2002-04-25 12:10:06 51°13.332 2°51.613 11.3 205 10.9 102200 85
2002-04-25 12:10:11 51°13.323 2°51.591 11.6 204 11 102200 85
2002-04-25 12:10:16 51°13.315 2°51.567 10.3 204 11 102200 85
2002-04-25 12:10:21 51°13.306 2°51.545 10.5 202 11 102200 85
2002-04-25 12:10:26 51°13.298 2°51.521 10.6 208 11 102200 85
2002-04-25 12:10:31 51°13.289 2°51.498 10.8 203 11 102200 85
2002-04-25 12:10:36 51°13.281 2°51.476 10.7 204 11 102200 85
2002-04-25 12:10:41 51°13.272 2°51.453 11 206 11 102200 85
2002-04-25 12:10:46 51°13.264 2°51.431 10.5 206 11 102200 85
2002-04-25 12:10:51 51°13.255 2°51.409 9.9 206 11 102200 85
2002-04-25 12:10:56 51°13.246 2°51.386 10.9 210 11 102200 85
2002-04-25 12:11:01 51°13.238 2°51.364 11.3 207 11 102200 85
2002-04-25 12:11:06 51°13.229 2°51.342 10.9 202 11 102200 85
2002-04-25 12:11:11 51°13.221 2°51.319 10.6 206 11 102210 85
2002-04-25 12:11:16 51°13.212 2°51.297 10.8 210 11 102210 85
2002-04-25 12:11:21 51°13.204 2°51.274 10.3 206 11 102200 85
2002-04-25 12:11:26 51°13.196 2°51.25 11.4 205 11 102200 85
2002-04-25 12:11:31 51°13.187 2°51.227 10.1 204 11 102210 85
2002-04-25 12:11:36 51°13.179 2°51.204 10.3 207 11 102210 85
2002-04-25 12:11:41 51°13.17 2°51.182 10.5 208 11 102210 85
2002-04-25 12:11:46 51°13.161 2°51.16 11.5 206 11 102210 85
2002-04-25 12:11:51 51°13.153 2°51.137 10.7 205 11 102210 85
2002-04-25 12:11:56 51°13.144 2°51.115 11.4 205 11 102210 85
2002-04-25 12:12:01 51°13.136 2°51.092 11.6 207 11 102210 85
2002-04-25 12:12:06 51°13.127 2°51.069 11.1 206 11 102210 85
2002-04-25 12:12:11 51°13.119 2°51.047 11 209 11 102210 85
2002-04-25 12:12:16 51°13.11 2°51.024 11.5 205 11 102210 85
2002-04-25 12:12:21 51°13.102 2°50.999 11 205 11 102200 85
2002-04-25 12:12:26 51°13.094 2°50.975 11.1 205 11 102200 85
2002-04-25 12:12:31 51°13.086 2°50.952 10.7 204 11 102200 85
2002-04-25 12:12:36 51°13.077 2°50.93 10.6 203 11 102200 85
2002-04-25 12:12:41 51°13.068 2°50.907 10.4 203 11 102200 85
2002-04-25 12:12:46 51°13.059 2°50.886 10.5 204 11 102200 85
2002-04-25 12:12:51 51°13.052 2°50.864 10.4 206 11 102200 85
2002-04-25 12:12:56 51°13.043 2°50.84 11.1 208 11 102200 85
2002-04-25 12:13:01 51°13.035 2°50.816 11.9 208 11 102210 85
2002-04-25 12:13:06 51°13.026 2°50.793 11.7 205 11 102210 85
2002-04-25 12:13:11 51°13.018 2°50.77 11.9 204 10.9 102200 84
2002-04-25 12:13:16 51°13.009 2°50.747 11.2 206 10.9 102200 84
2002-04-25 12:13:21 51°13 2°50.724 11.5 206 11 102210 85
2002-04-25 12:13:26 51°12.992 2°50.701 9.9 204 11 102210 85
2002-04-25 12:13:31 51°12.983 2°50.678 10.8 213 10.9 102200 85
2002-04-25 12:13:36 51°12.975 2°50.654 11 206 10.9 102200 85
2002-04-25 12:13:41 51°12.966 2°50.631 10.6 204 10.9 102210 85
2002-04-25 12:13:46 51°12.957 2°50.609 11.8 202 10.9 102210 85
2002-04-25 12:13:51 51°12.949 2°50.586 11.2 207 10.9 102210 85
2002-04-25 12:13:56 51°12.939 2°50.563 11 203 10.9 102210 85
2002-04-25 12:14:01 51°12.93 2°50.539 11.5 204 10.9 102210 85
2002-04-25 12:14:06 51°12.922 2°50.515 10.3 205 10.9 102210 85
2002-04-25 12:14:11 51°12.913 2°50.492 10.8 203 10.9 102200 85
2002-04-25 12:14:16 51°12.904 2°50.469 11.9 202 10.9 102200 85
2002-04-25 12:14:21 51°12.895 2°50.447 11.1 206 10.9 102200 85
2002-04-25 12:14:26 51°12.887 2°50.424 10.9 205 10.9 102200 85
2002-04-25 12:14:31 51°12.878 2°50.401 11.8 203 10.9 102200 85
2002-04-25 12:14:36 51°12.87 2°50.378 12.1 203 10.9 102200 85
2002-04-25 12:14:41 51°12.861 2°50.355 11.8 202 10.9 102200 85
2002-04-25 12:14:46 51°12.852 2°50.331 10.6 207 10.9 102200 85
2002-04-25 12:14:51 51°12.844 2°50.308 10.7 203 10.9 102200 85
2002-04-25 12:14:56 51°12.835 2°50.285 10.6 206 10.9 102200 85
2002-04-25 12:15:01 51°12.826 2°50.262 10.8 205 10.9 102200 85
2002-04-25 12:15:05 51°12.819 2°50.244 10.8 205 10.9 102200 85
2002-04-25 12:15:11 51°12.809 2°50.214 11.1 203 10.9 102210 86
2002-04-25 12:15:16 51°12.801 2°50.191 11.2 203 10.9 102210 86
2002-04-25 12:15:21 51°12.792 2°50.168 11 201 10.9 102200 85
2002-04-25 12:15:26 51°12.783 2°50.145 11.2 202 10.9 102200 85
2002-04-25 12:15:31 51°12.775 2°50.123 10.9 204 10.9 102210 86
2002-04-25 12:15:36 51°12.766 2°50.1 10.7 204 10.9 102210 86
2002-04-25 12:15:41 51°12.757 2°50.077 11.9 204 10.9 102210 86
2002-04-25 12:15:46 51°12.749 2°50.053 11.7 204 10.9 102210 86
2002-04-25 12:15:51 51°12.741 2°50.029 11.7 203 10.9 102210 86
2002-04-25 12:15:56 51°12.733 2°50.006 10.4 200 10.9 102210 86
2002-04-25 12:16:01 51°12.725 2°49.982 11.2 204 10.9 102210 86
2002-04-25 12:16:06 51°12.717 2°49.958 10.9 207 10.9 102210 86
2002-04-25 12:16:11 51°12.708 2°49.935 11.8 206 10.9 102210 86
2002-04-25 12:16:16 51°12.701 2°49.911 11.3 205 10.9 102210 86
2002-04-25 12:16:21 51°12.692 2°49.888 10.9 206 10.9 102200 86
2002-04-25 12:16:26 51°12.684 2°49.864 10.8 206 10.9 102200 86
2002-04-25 12:16:31 51°12.676 2°49.84 10.4 206 10.9 102210 86
2002-04-25 12:16:36 51°12.668 2°49.816 10.9 202 10.9 102210 86
2002-04-25 12:16:41 51°12.659 2°49.793 12.1 203 10.9 102210 86
2002-04-25 12:16:46 51°12.651 2°49.768 10.9 207 10.9 102210 86
2002-04-25 12:16:51 51°12.643 2°49.745 12.2 205 10.9 102210 86
2002-04-25 12:16:56 51°12.635 2°49.721 10.9 205 10.9 102210 86
2002-04-25 12:17:01 51°12.627 2°49.698 11.8 205 10.9 102210 86
2002-04-25 12:17:06 51°12.619 2°49.674 12.3 204 10.9 102210 86
2002-04-25 12:17:11 51°12.61 2°49.651 11.6 204 10.9 102210 86
2002-04-25 12:17:16 51°12.602 2°49.628 12.2 202 10.9 102210 86
2002-04-25 12:17:21 51°12.594 2°49.604 12.3 201 10.9 102210 86
2002-04-25 12:17:26 51°12.585 2°49.581 11.6 203 10.9 102210 86
2002-04-25 12:17:31 51°12.577 2°49.557 11.4 202 10.9 102200 86
2002-04-25 12:17:36 51°12.569 2°49.534 10.7 211 10.9 102200 86
2002-04-25 12:17:41 51°12.561 2°49.509 11.7 204 10.9 102210 85
2002-04-25 12:17:46 51°12.553 2°49.485 11.1 204 10.9 102210 85
2002-04-25 12:17:51 51°12.544 2°49.461 12.3 203 10.9 102210 85
2002-04-25 12:17:55 51°12.538 2°49.441 11.4 207 10.9 102210 85
2002-04-25 12:18:01 51°12.528 2°49.413 11.5 205 10.9 102210 85
2002-04-25 12:18:06 51°12.52 2°49.389 11.2 205 10.9 102210 85
2002-04-25 12:18:11 51°12.512 2°49.365 10.6 204 10.9 102210 85
2002-04-25 12:18:16 51°12.504 2°49.342 11.9 203 10.9 102210 85
2002-04-25 12:18:21 51°12.496 2°49.318 11.3 207 11 102210 85
2002-04-25 12:18:26 51°12.487 2°49.296 10.4 205 11 102210 85
2002-04-25 12:18:31 51°12.479 2°49.272 10.3 203 10.9 102210 85
2002-04-25 12:18:36 51°12.471 2°49.248 11.3 205 10.9 102210 85
2002-04-25 12:18:41 51°12.463 2°49.225 10.4 202 10.9 102200 85
2002-04-25 12:18:46 51°12.454 2°49.202 11.7 202 10.9 102200 85
2002-04-25 12:18:51 51°12.446 2°49.179 11.7 205 10.9 102210 85
2002-04-25 12:18:56 51°12.438 2°49.155 12.5 207 10.9 102210 85
2002-04-25 12:19:01 51°12.43 2°49.132 11.3 203 10.9 102210 85
2002-04-25 12:19:06 51°12.422 2°49.108 11.7 203 10.9 102210 85
2002-04-25 12:19:11 51°12.414 2°49.085 11.3 204 10.9 102210 86
2002-04-25 12:19:16 51°12.406 2°49.062 10.5 201 10.9 102210 86
2002-04-25 12:19:21 51°12.398 2°49.038 11 206 10.9 102210 85
2002-04-25 12:19:26 51°12.39 2°49.014 12.3 204 10.9 102210 85
2002-04-25 12:19:31 51°12.382 2°48.99 12.1 205 10.9 102210 85
2002-04-25 12:19:36 51°12.373 2°48.967 12 205 10.9 102210 85
2002-04-25 12:19:41 51°12.365 2°48.943 11.7 205 10.9 102210 86
2002-04-25 12:19:46 51°12.357 2°48.92 10.4 204 10.9 102210 86
2002-04-25 12:19:51 51°12.349 2°48.896 10.9 205 10.9 102210 86
2002-04-25 12:19:56 51°12.341 2°48.873 10.3 205 10.9 102210 86
2002-04-25 12:20:01 51°12.333 2°48.848 11 204 10.9 102210 85
2002-04-25 12:20:06 51°12.324 2°48.825 11.2 203 10.9 102210 85
2002-04-25 12:20:11 51°12.317 2°48.801 10.6 204 10.9 102210 86
2002-04-25 12:20:16 51°12.308 2°48.778 10.9 205 10.9 102210 86
2002-04-25 12:20:21 51°12.3 2°48.754 11.9 205 10.9 102210 86
2002-04-25 12:20:26 51°12.292 2°48.731 11.2 207 10.9 102210 86
2002-04-25 12:20:31 51°12.284 2°48.707 11 205 10.9 102210 86
2002-04-25 12:20:36 51°12.275 2°48.684 12.3 204 10.9 102210 86
2002-04-25 12:20:41 51°12.267 2°48.66 11.2 204 10.9 102210 86
2002-04-25 12:20:46 51°12.259 2°48.637 12 203 10.9 102210 86
2002-04-25 12:20:50 51°12.252 2°48.618 11.2 202 10.9 102210 86
2002-04-25 12:20:56 51°12.243 2°48.59 10.5 205 10.9 102210 86
2002-04-25 12:21:01 51°12.235 2°48.566 11.3 202 10.9 102210 86
2002-04-25 12:21:06 51°12.227 2°48.542 11.1 203 10.9 102210 86
2002-04-25 12:21:11 51°12.219 2°48.518 10.7 199 10.9 102210 85
2002-04-25 12:21:16 51°12.211 2°48.495 11.4 202 10.9 102210 85
2002-04-25 12:21:21 51°12.203 2°48.471 10.9 200 10.9 102210 86
2002-04-25 12:21:26 51°12.194 2°48.447 10.6 201 10.9 102210 86
2002-04-25 12:21:31 51°12.186 2°48.423 11.7 206 10.9 102210 86
2002-04-25 12:21:36 51°12.178 2°48.4 10.3 204 10.9 102210 86
2002-04-25 12:21:41 51°12.17 2°48.377 10.2 208 10.9 102210 86
2002-04-25 12:21:46 51°12.162 2°48.353 11.9 205 10.9 102210 86
2002-04-25 12:21:51 51°12.154 2°48.33 11.4 205 10.9 102210 86
2002-04-25 12:21:56 51°12.146 2°48.307 11.9 199 10.9 102210 86
2002-04-25 12:22:01 51°12.138 2°48.283 11.1 200 10.9 102210 86
2002-04-25 12:22:06 51°12.13 2°48.259 12.1 200 10.9 102210 86
2002-04-25 12:22:11 51°12.122 2°48.235 12.2 201 10.9 102210 86
2002-04-25 12:22:16 51°12.114 2°48.211 11.5 204 10.9 102210 86
2002-04-25 12:22:21 51°12.107 2°48.187 10.4 202 10.9 102200 85
2002-04-25 12:22:26 51°12.099 2°48.162 11.7 201 10.9 102200 85
2002-04-25 12:22:31 51°12.093 2°48.137 11.4 209 10.9 102210 85
2002-04-25 12:22:36 51°12.086 2°48.112 11.5 205 10.9 102210 85
2002-04-25 12:22:41 51°12.079 2°48.087 12.1 204 10.9 102210 85
2002-04-25 12:22:46 51°12.073 2°48.062 10.8 202 10.9 102210 85
2002-04-25 12:22:51 51°12.067 2°48.036 11.3 202 10.9 102210 86
2002-04-25 12:22:56 51°12.061 2°48.011 11 206 10.9 102210 86
2002-04-25 12:23:01 51°12.054 2°47.985 11.5 208 10.8 102210 85
2002-04-25 12:23:06 51°12.048 2°47.96 11.2 205 10.8 102210 85
2002-04-25 12:23:11 51°12.041 2°47.935 12.7 206 10.9 102210 85
2002-04-25 12:23:16 51°12.035 2°47.91 11.6 203 10.9 102210 85
2002-04-25 12:23:21 51°12.028 2°47.885 11.1 204 10.9 102210 86
2002-04-25 12:23:26 51°12.021 2°47.86 11.5 205 10.9 102210 86
2002-04-25 12:23:31 51°12.014 2°47.835 11 205 10.9 102210 86
2002-04-25 12:23:36 51°12.008 2°47.81 11.2 205 10.9 102210 86
2002-04-25 12:23:41 51°12.001 2°47.785 12.2 204 10.9 102210 85
2002-04-25 12:23:46 51°11.994 2°47.761 11.5 200 10.9 102210 85
2002-04-25 12:23:51 51°11.988 2°47.736 12.1 201 10.9 102210 85
2002-04-25 12:23:56 51°11.981 2°47.711 10.7 204 10.9 102210 85
2002-04-25 12:24:01 51°11.974 2°47.686 11.6 204 10.9 102210 85
2002-04-25 12:24:06 51°11.968 2°47.661 12 205 10.9 102210 85
2002-04-25 12:24:11 51°11.961 2°47.637 11.4 203 10.9 102210 85
2002-04-25 12:24:16 51°11.954 2°47.612 11.2 201 10.9 102210 85
2002-04-25 12:24:21 51°11.948 2°47.588 11.7 204 10.8 102220 85
2002-04-25 12:24:26 51°11.941 2°47.563 10.7 203 10.8 102220 85
2002-04-25 12:24:31 51°11.934 2°47.538 11 203 10.9 102210 85
2002-04-25 12:24:36 51°11.928 2°47.513 11.2 205 10.9 102210 85
2002-04-25 12:24:41 51°11.921 2°47.489 12.1 203 10.9 102210 85
2002-04-25 12:24:46 51°11.915 2°47.464 11.3 203 10.9 102210 85
2002-04-25 12:24:51 51°11.908 2°47.439 11.9 204 10.9 102210 85
2002-04-25 12:24:56 51°11.901 2°47.415 10.9 206 10.9 102210 85
2002-04-25 12:25:01 51°11.895 2°47.39 10.7 207 11 102210 85
2002-04-25 12:25:06 51°11.888 2°47.365 12.5 203 11 102210 85
2002-04-25 12:25:11 51°11.881 2°47.341 11.2 205 10.9 102210 85
2002-04-25 12:25:16 51°11.874 2°47.316 12.7 200 10.9 102210 85
2002-04-25 12:25:21 51°11.868 2°47.291 11.5 203 10.9 102220 85
2002-04-25 12:25:26 51°11.861 2°47.267 11.8 201 10.9 102220 85
2002-04-25 12:25:31 51°11.854 2°47.242 11.4 201 10.9 102210 85
2002-04-25 12:25:36 51°11.847 2°47.217 11.9 200 10.9 102210 85
2002-04-25 12:25:41 51°11.841 2°47.193 11.9 203 11 102210 85
2002-04-25 12:25:46 51°11.834 2°47.168 11.1 204 11 102210 85
2002-04-25 12:25:51 51°11.827 2°47.143 11.8 204 10.9 102210 84
2002-04-25 12:25:56 51°11.821 2°47.119 12.2 202 10.9 102210 84
2002-04-25 12:26:01 51°11.814 2°47.094 11.7 199 10.9 102220 84
2002-04-25 12:26:06 51°11.807 2°47.069 10.5 207 10.9 102220 84
2002-04-25 12:26:11 51°11.801 2°47.044 12.1 208 10.9 102210 85
2002-04-25 12:26:16 51°11.794 2°47.02 12.6 207 10.9 102210 85
2002-04-25 12:26:21 51°11.787 2°46.995 11.1 206 10.9 102210 85
2002-04-25 12:26:26 51°11.781 2°46.97 12.4 206 10.9 102210 85
2002-04-25 12:26:31 51°11.774 2°46.946 11.6 207 10.9 102220 85
2002-04-25 12:26:36 51°11.767 2°46.921 12.3 207 10.9 102220 85
2002-04-25 12:26:41 51°11.761 2°46.896 11.4 204 10.9 102210 85
2002-04-25 12:26:46 51°11.754 2°46.872 11.5 201 10.9 102210 85
2002-04-25 12:26:51 51°11.747 2°46.847 11.3 205 10.9 102210 85
2002-04-25 12:26:56 51°11.741 2°46.822 11.9 204 10.9 102210 85
2002-04-25 12:27:01 51°11.734 2°46.797 10.9 204 10.9 102210 85
2002-04-25 12:27:06 51°11.727 2°46.773 10.6 201 10.9 102210 85
2002-04-25 12:27:11 51°11.721 2°46.748 11.9 206 10.9 102210 85
2002-04-25 12:27:16 51°11.714 2°46.723 12.2 204 10.9 102210 85
2002-04-25 12:27:21 51°11.707 2°46.698 12.4 203 10.9 102210 85
2002-04-25 12:27:26 51°11.7 2°46.673 11.9 201 10.9 102210 85
2002-04-25 12:27:31 51°11.694 2°46.649 11.1 202 10.9 102210 85
2002-04-25 12:27:36 51°11.687 2°46.624 11.6 205 10.9 102210 85
2002-04-25 12:27:41 51°11.68 2°46.599 12.6 205 10.9 102210 85
2002-04-25 12:27:46 51°11.673 2°46.574 12.7 202 10.9 102210 85
2002-04-25 12:27:51 51°11.667 2°46.549 12 204 10.9 102210 85
2002-04-25 12:27:56 51°11.66 2°46.524 11.8 207 10.9 102210 85
2002-04-25 12:28:01 51°11.654 2°46.499 10.5 207 10.9 102220 85
2002-04-25 12:28:06 51°11.647 2°46.475 11.5 204 10.9 102220 85
2002-04-25 12:28:11 51°11.64 2°46.45 10.9 205 10.9 102210 85
2002-04-25 12:28:16 51°11.633 2°46.425 12 204 10.9 102210 85
2002-04-25 12:28:21 51°11.626 2°46.4 10.7 208 10.9 102210 85
2002-04-25 12:28:26 51°11.62 2°46.375 13.1 206 10.9 102210 85
2002-04-25 12:28:31 51°11.613 2°46.351 12.5 205 10.9 102210 85
2002-04-25 12:28:36 51°11.606 2°46.326 11.8 204 10.9 102210 85
2002-04-25 12:28:41 51°11.599 2°46.301 11.9 207 10.9 102210 85
2002-04-25 12:28:46 51°11.592 2°46.277 12.1 206 10.9 102210 85
2002-04-25 12:28:51 51°11.586 2°46.252 11.7 208 10.9 102210 85
2002-04-25 12:28:56 51°11.579 2°46.228 11.9 209 10.9 102210 85
2002-04-25 12:29:01 51°11.572 2°46.203 11.5 208 10.9 102210 85
2002-04-25 12:29:06 51°11.565 2°46.178 11.9 206 10.9 102210 85
2002-04-25 12:29:11 51°11.559 2°46.154 11.3 207 10.9 102210 85
2002-04-25 12:29:16 51°11.552 2°46.129 12 208 10.9 102210 85
2002-04-25 12:29:21 51°11.545 2°46.104 11.1 209 10.9 102210 85
2002-04-25 12:29:26 51°11.539 2°46.079 11.6 212 10.9 102210 85
2002-04-25 12:29:31 51°11.532 2°46.054 12.7 208 10.9 102220 85
2002-04-25 12:29:36 51°11.526 2°46.03 12.4 207 10.9 102220 85
2002-04-25 12:29:41 51°11.519 2°46.005 12 206 10.9 102210 85
2002-04-25 12:29:46 51°11.512 2°45.981 12 207 10.9 102210 85
2002-04-25 12:29:51 51°11.505 2°45.956 12.5 203 11 102220 85
2002-04-25 12:29:56 51°11.498 2°45.931 10.2 209 11 102220 85
2002-04-25 12:30:01 51°11.491 2°45.907 11.3 206 11 102210 85
2002-04-25 12:30:06 51°11.485 2°45.882 11.5 205 11 102210 85
2002-04-25 12:30:11 51°11.478 2°45.858 11.8 203 11 102210 85
2002-04-25 12:30:16 51°11.471 2°45.833 11.2 209 11 102210 85
2002-04-25 12:30:21 51°11.465 2°45.809 11.3 207 11 102210 85
2002-04-25 12:30:26 51°11.458 2°45.784 11.6 207 11 102210 85
2002-04-25 12:30:31 51°11.451 2°45.76 11.5 209 11 102210 85
2002-04-25 12:30:36 51°11.444 2°45.735 12 211 11 102210 85
2002-04-25 12:30:41 51°11.438 2°45.711 11.9 210 11 102210 85
2002-04-25 12:30:46 51°11.431 2°45.686 11.2 211 11 102210 85
2002-04-25 12:30:51 51°11.424 2°45.662 11.1 211 11 102210 85
2002-04-25 12:30:56 51°11.418 2°45.637 12.2 209 11 102210 85
2002-04-25 12:31:01 51°11.411 2°45.613 11.6 209 11 102220 85
2002-04-25 12:31:06 51°11.404 2°45.588 12.1 213 11 102220 85
2002-04-25 12:31:11 51°11.397 2°45.564 11.1 207 11 102210 85
2002-04-25 12:31:16 51°11.39 2°45.539 10.6 213 11 102210 85
2002-04-25 12:31:21 51°11.383 2°45.515 12.1 207 11 102220 85
2002-04-25 12:31:26 51°11.376 2°45.49 11.7 208 11 102220 85
2002-04-25 12:31:31 51°11.369 2°45.465 12.1 208 11 102210 84
2002-04-25 12:31:36 51°11.362 2°45.44 12.1 207 11 102210 84
2002-04-25 12:31:41 51°11.355 2°45.415 12.2 209 11.1 102220 85
2002-04-25 12:31:46 51°11.348 2°45.39 11.9 211 11.1 102220 85
2002-04-25 12:31:51 51°11.341 2°45.366 11.6 210 11 102220 84
2002-04-25 12:31:56 51°11.334 2°45.341 11.7 207 11 102220 84
2002-04-25 12:32:01 51°11.327 2°45.316 10.5 206 11.1 102220 85
2002-04-25 12:32:06 51°11.32 2°45.291 11.9 209 11.1 102220 85
2002-04-25 12:32:11 51°11.313 2°45.266 12.9 212 11.1 102220 85
2002-04-25 12:32:16 51°11.306 2°45.241 11.5 206 11.1 102220 85
2002-04-25 12:32:21 51°11.299 2°45.217 12.6 206 11.1 102220 85
2002-04-25 12:32:26 51°11.292 2°45.192 12.6 207 11.1 102220 85
2002-04-25 12:32:31 51°11.285 2°45.167 11.3 211 11.1 102220 84
2002-04-25 12:32:36 51°11.278 2°45.142 11.5 203 11.1 102220 84
2002-04-25 12:32:41 51°11.271 2°45.117 10.8 211 11.1 102220 84
2002-04-25 12:32:46 51°11.265 2°45.092 10.4 213 11.1 102220 84
2002-04-25 12:32:51 51°11.26 2°45.066 12.5 216 11.1 102220 84
2002-04-25 12:32:56 51°11.258 2°45.04 13.2 218 11.1 102220 84
2002-04-25 12:33:01 51°11.258 2°45.013 13.1 217 11.1 102220 84
2002-04-25 12:33:06 51°11.259 2°44.986 13 220 11.1 102220 84
2002-04-25 12:33:11 51°11.26 2°44.959 12.9 222 11.1 102220 85
2002-04-25 12:33:16 51°11.261 2°44.932 13.9 220 11.1 102220 85
2002-04-25 12:33:21 51°11.262 2°44.905 14.7 217 11.1 102220 85
2002-04-25 12:33:26 51°11.264 2°44.878 13.4 216 11.1 102220 85
2002-04-25 12:33:31 51°11.265 2°44.85 13.1 220 11.1 102220 85
2002-04-25 12:33:36 51°11.266 2°44.823 14 222 11.1 102220 85
2002-04-25 12:33:41 51°11.268 2°44.795 13.4 221 11.2 102220 84
2002-04-25 12:33:46 51°11.27 2°44.768 12.4 218 11.2 102220 84
2002-04-25 12:33:51 51°11.271 2°44.74 13 216 11.2 102220 84
2002-04-25 12:33:56 51°11.272 2°44.713 12.4 220 11.2 102220 84
2002-04-25 12:34:01 51°11.273 2°44.685 12.9 218 11.2 102220 84
2002-04-25 12:34:06 51°11.275 2°44.658 13.3 217 11.2 102220 84
2002-04-25 12:34:11 51°11.276 2°44.63 12.1 220 11.2 102230 84
2002-04-25 12:34:16 51°11.278 2°44.603 14 220 11.2 102230 84
2002-04-25 12:34:21 51°11.278 2°44.575 14 217 11.2 102230 84
2002-04-25 12:34:26 51°11.28 2°44.548 14 220 11.2 102230 84
2002-04-25 12:34:31 51°11.282 2°44.52 14.4 218 11.2 102220 84
2002-04-25 12:34:36 51°11.283 2°44.492 12.9 220 11.2 102220 84
2002-04-25 12:34:41 51°11.285 2°44.465 13.7 217 11.3 102230 84
2002-04-25 12:34:46 51°11.287 2°44.437 13.9 219 11.3 102230 84
2002-04-25 12:34:51 51°11.289 2°44.41 12.9 218 11.3 102220 84
2002-04-25 12:34:56 51°11.291 2°44.382 13.7 218 11.3 102220 84
2002-04-25 12:35:01 51°11.292 2°44.355 13.3 220 11.3 102230 84
2002-04-25 12:35:06 51°11.293 2°44.327 12.4 222 11.3 102230 84
2002-04-25 12:35:11 51°11.295 2°44.3 13.9 223 11.3 102220 83
2002-04-25 12:35:16 51°11.298 2°44.272 14.1 222 11.3 102220 83
2002-04-25 12:35:21 51°11.302 2°44.245 14.4 221 11.3 102220 83
2002-04-25 12:35:26 51°11.307 2°44.219 14 224 11.3 102220 83
2002-04-25 12:35:31 51°11.311 2°44.192 13.9 223 11.3 102230 84
2002-04-25 12:35:36 51°11.317 2°44.166 13.4 224 11.3 102230 84
2002-04-25 12:35:41 51°11.323 2°44.14 12.9 222 11.3 102220 83
2002-04-25 12:35:46 51°11.328 2°44.114 12.1 226 11.3 102220 83
2002-04-25 12:35:51 51°11.332 2°44.088 12.8 226 11.3 102220 83
2002-04-25 12:35:56 51°11.337 2°44.061 13.4 224 11.3 102220 83
2002-04-25 12:36:01 51°11.342 2°44.035 14.4 228 11.4 102230 83
2002-04-25 12:36:06 51°11.348 2°44.009 13.7 226 11.4 102230 83
2002-04-25 12:36:11 51°11.354 2°43.982 13.7 227 11.4 102230 83
2002-04-25 12:36:16 51°11.359 2°43.956 13.5 224 11.4 102230 83
2002-04-25 12:36:21 51°11.364 2°43.93 11.9 226 11.4 102230 83
2002-04-25 12:36:26 51°11.37 2°43.904 12.8 228 11.4 102230 83
2002-04-25 12:36:31 51°11.376 2°43.878 13.4 227 11.4 102220 83
2002-04-25 12:36:36 51°11.382 2°43.852 14.1 229 11.4 102220 83
2002-04-25 12:36:41 51°11.389 2°43.826 13.2 230 11.4 102230 83
2002-04-25 12:36:46 51°11.395 2°43.8 13 225 11.4 102230 83
2002-04-25 12:36:51 51°11.401 2°43.774 13.9 225 11.4 102230 83
2002-04-25 12:36:56 51°11.407 2°43.748 13 226 11.4 102230 83
2002-04-25 12:37:01 51°11.412 2°43.721 13.4 225 11.4 102230 83
2002-04-25 12:37:06 51°11.418 2°43.695 14.1 227 11.4 102230 83
2002-04-25 12:37:11 51°11.423 2°43.668 13.2 226 11.4 102230 83
2002-04-25 12:37:16 51°11.43 2°43.642 14 228 11.4 102230 83
2002-04-25 12:37:21 51°11.435 2°43.616 14.5 225 11.4 102230 83
2002-04-25 12:37:26 51°11.441 2°43.59 13.6 228 11.4 102230 83
2002-04-25 12:37:31 51°11.446 2°43.563 13.7 225 11.4 102230 83
2002-04-25 12:37:36 51°11.451 2°43.537 12.7 225 11.4 102230 83
2002-04-25 12:37:40 51°11.455 2°43.516 12.7 222 11.3 102230 83
2002-04-25 12:37:46 51°11.461 2°43.484 12.7 226 11.3 102230 83
2002-04-25 12:37:51 51°11.466 2°43.457 13 227 11.3 102230 83
2002-04-25 12:37:56 51°11.472 2°43.431 14.3 226 11.3 102230 83
2002-04-25 12:38:01 51°11.478 2°43.405 12.8 227 11.3 102230 83
2002-04-25 12:38:06 51°11.484 2°43.379 13.2 226 11.3 102230 83
2002-04-25 12:38:11 51°11.49 2°43.353 13.6 228 11.3 102230 83
2002-04-25 12:38:16 51°11.496 2°43.327 12.8 225 11.3 102230 83
2002-04-25 12:38:21 51°11.502 2°43.3 12.8 224 11.3 102230 83
2002-04-25 12:38:26 51°11.506 2°43.274 12.2 224 11.3 102230 83
2002-04-25 12:38:31 51°11.509 2°43.247 13 221 11.4 102230 83
2002-04-25 12:38:36 51°11.511 2°43.219 12.6 223 11.4 102230 83
2002-04-25 12:38:41 51°11.514 2°43.192 13.1 224 11.3 102230 83
2002-04-25 12:38:46 51°11.516 2°43.165 13.9 223 11.3 102230 83
2002-04-25 12:38:51 51°11.519 2°43.138 13.4 229 11.4 102230 83
2002-04-25 12:38:55 51°11.522 2°43.116 13.1 228 11.4 102230 83
2002-04-25 12:39:01 51°11.529 2°43.085 13.7 232 11.4 102240 83
2002-04-25 12:39:05 51°11.534 2°43.065 12.7 235 11.4 102240 83
2002-04-25 12:39:11 51°11.546 2°43.037 12.8 240 11.3 102230 83
2002-04-25 12:39:16 51°11.557 2°43.017 12.2 242 11.3 102230 83
2002-04-25 12:39:20 51°11.568 2°43.003 12.7 240 11.3 102230 83
2002-04-25 12:39:25 51°11.582 2°42.987 12.9 243 11.3 102230 83
2002-04-25 12:39:31 51°11.599 2°42.967 12.4 239 11.3 102230 83
2002-04-25 12:39:35 51°11.61 2°42.953 12.5 239 11.3 102230 83
2002-04-25 12:39:41 51°11.626 2°42.932 13.8 239 11.3 102240 83
2002-04-25 12:39:46 51°11.639 2°42.912 12.2 237 11.3 102240 83
2002-04-25 12:39:51 51°11.652 2°42.892 13.4 235 11.3 102230 83
2002-04-25 12:39:56 51°11.664 2°42.872 13.3 232 11.3 102230 83
2002-04-25 12:40:01 51°11.675 2°42.851 12.6 230 11.3 102230 83
2002-04-25 12:40:05 51°11.683 2°42.832 13.2 231 11.3 102230 83
2002-04-25 12:40:11 51°11.693 2°42.804 14.2 229 11.3 102230 83
2002-04-25 12:40:16 51°11.7 2°42.779 13.7 229 11.3 102230 83
2002-04-25 12:40:20 51°11.705 2°42.76 12 228 11.3 102230 83
2002-04-25 12:40:26 51°11.711 2°42.733 11 226 11.3 102230 83
2002-04-25 12:40:31 51°11.716 2°42.713 11.6 224 11.3 102230 83
2002-04-25 12:40:36 51°11.72 2°42.695 11.9 225 11.3 102230 83
2002-04-25 12:40:40 51°11.722 2°42.681 9.8 224 11.3 102230 83
2002-04-25 12:40:46 51°11.726 2°42.662 10 223 11.3 102230 83
2002-04-25 12:40:51 51°11.728 2°42.648 10.5 221 11.3 102240 83
2002-04-25 12:40:56 51°11.729 2°42.634 8.8 215 11.3 102240 83
2002-04-25 12:41:00 51°11.73 2°42.624 9.3 216 11.3 102240 83
2002-04-25 12:41:06 51°11.731 2°42.611 8.2 215 11.3 102240 83
2002-04-25 12:41:11 51°11.732 2°42.602 7.8 212 11.3 102240 83
2002-04-25 12:41:16 51°11.733 2°42.595 7.7 210 11.3 102240 83
2002-04-25 12:41:21 51°11.733 2°42.589 7.7 203 11.4 102240 83
2002-04-25 12:41:26 51°11.734 2°42.586 6.8 199 11.4 102240 83
2002-04-25 12:41:31 51°11.734 2°42.584 6.5 195 11.4 102250 83
2002-04-25 12:41:36 51°11.735 2°42.584 5.8 190 11.4 102250 83
2002-04-25 12:41:41 51°11.736 2°42.585 4.6 178 11.4 102250 83
2002-04-25 12:41:45 51°11.736 2°42.587 5.4 181 11.4 102250 83
2002-04-25 12:41:51 51°11.738 2°42.589 5.7 176 11.3 102250 83
2002-04-25 12:41:56 51°11.739 2°42.591 5.9 174 11.3 102250 83
2002-04-25 12:42:01 51°11.739 2°42.593 6.4 173 11.3 102250 83
2002-04-25 12:42:06 51°11.74 2°42.595 6.4 168 11.3 102250 83
2002-04-25 12:42:11 51°11.741 2°42.597 6.3 171 11.3 102250 84
2002-04-25 12:42:16 51°11.742 2°42.599 6.5 170 11.3 102250 84
2002-04-25 12:42:20 51°11.742 2°42.601 6.1 164 11.2 102250 84
2002-04-25 12:42:26 51°11.743 2°42.604 6 161 11.2 102250 84
2002-04-25 12:42:31 51°11.744 2°42.606 5.6 163 11.2 102250 84
2002-04-25 12:42:37 51°11.745 2°42.609 6.2 157 11.2 102250 84
2002-04-25 12:42:42 51°11.746 2°42.611 6 157 11.2 102250 84
2002-04-25 12:42:47 51°11.746 2°42.613 5.4 152 11.2 102250 84
2002-04-25 12:42:51 51°11.747 2°42.615 6.1 149 11.2 102250 84
2002-04-25 12:42:57 51°11.748 2°42.617 5 147 11.2 102250 84
2002-04-25 12:43:01 51°11.748 2°42.619 5.7 146 11.2 102250 85
2002-04-25 12:43:07 51°11.749 2°42.622 5.4 141 11.2 102250 85
2002-04-25 12:43:12 51°11.749 2°42.624 5.6 142 11.1 102250 85
2002-04-25 12:43:16 51°11.75 2°42.626 5.5 150 11.1 102250 85
2002-04-25 12:43:21 51°11.751 2°42.628 5.5 146 11.1 102250 85
2002-04-25 12:43:26 51°11.751 2°42.63 6 142 11.1 102250 85
2002-04-25 12:43:31 51°11.751 2°42.632 5.1 137 11.1 102250 85
2002-04-25 12:43:36 51°11.752 2°42.634 4.9 145 11.1 102250 85
2002-04-25 12:43:41 51°11.752 2°42.636 4.5 137 11.1 102250 85
2002-04-25 12:43:47 51°11.753 2°42.639 5.1 132 11.1 102250 85
2002-04-25 12:43:52 51°11.754 2°42.641 5.2 140 11.1 102250 85
2002-04-25 12:43:56 51°11.754 2°42.643 4.5 134 11.1 102250 85
2002-04-25 12:44:01 51°11.754 2°42.645 5.6 130 11.1 102260 85
2002-04-25 12:44:06 51°11.755 2°42.647 5.6 131 11.1 102260 85
2002-04-25 12:44:11 51°11.755 2°42.65 5.2 134 11.1 102250 85
2002-04-25 12:44:16 51°11.756 2°42.652 5.1 132 11.1 102250 85
2002-04-25 12:44:21 51°11.756 2°42.654 5.8 133 11.1 102250 85
2002-04-25 12:44:27 51°11.756 2°42.657 5.8 127 11.1 102250 85
2002-04-25 12:44:31 51°11.757 2°42.659 4.9 130 11.1 102260 85
2002-04-25 12:44:36 51°11.757 2°42.661 5.4 130 11.1 102260 85
2002-04-25 12:44:41 51°11.757 2°42.663 5.7 131 11.1 102250 85
2002-04-25 12:44:46 51°11.758 2°42.666 5.5 131 11.1 102250 85
2002-04-25 12:44:52 51°11.758 2°42.669 5.7 134 11.1 102260 85
2002-04-25 12:44:57 51°11.758 2°42.671 5.7 133 11.1 102260 85
2002-04-25 12:45:01 51°11.759 2°42.673 5.9 129 11.1 102260 85
2002-04-25 12:45:06 51°11.759 2°42.675 5.5 129 11.1 102260 85
2002-04-25 12:45:11 51°11.76 2°42.678 5.6 127 11.1 102260 85
2002-04-25 12:45:15 51°11.76 2°42.679 5.9 125 11.1 102260 85
2002-04-25 12:45:21 51°11.76 2°42.683 4.7 126 11.1 102250 85
2002-04-25 12:45:26 51°11.76 2°42.685 5.4 136 11.1 102250 85
2002-04-25 12:45:31 51°11.76 2°42.687 4.4 128 11.1 102250 85
2002-04-25 12:45:36 51°11.761 2°42.69 4.5 131 11.1 102250 85
2002-04-25 12:45:40 51°11.761 2°42.692 5.5 124 11.1 102260 85
2002-04-25 12:45:46 51°11.761 2°42.694 4.6 126 11.1 102260 85
2002-04-25 12:45:51 51°11.761 2°42.696 5.4 129 11.1 102260 85
2002-04-25 12:45:56 51°11.762 2°42.699 4.4 128 11.1 102260 85
2002-04-25 12:46:01 51°11.762 2°42.701 4.8 127 11.1 102260 85
2002-04-25 12:46:06 51°11.762 2°42.703 5 127 11.1 102260 85
2002-04-25 12:46:11 51°11.763 2°42.706 5.7 128 11.1 102260 85
2002-04-25 12:46:16 51°11.763 2°42.708 5.1 134 11.1 102260 85
2002-04-25 12:46:21 51°11.763 2°42.71 5.3 127 11.1 102250 85
2002-04-25 12:46:25 51°11.763 2°42.712 4.7 127 11.1 102250 85
2002-04-25 12:46:31 51°11.763 2°42.715 5.2 126 11.1 102260 85
2002-04-25 12:46:35 51°11.764 2°42.717 5.2 128 11.1 102260 85
2002-04-25 12:46:41 51°11.764 2°42.72 5.4 126 11.1 102260 85
2002-04-25 12:46:45 51°11.764 2°42.722 5.6 127 11.1 102260 85
2002-04-25 12:46:51 51°11.764 2°42.725 6.2 138 11.1 102260 85
2002-04-25 12:46:56 51°11.764 2°42.727 4.8 130 11.1 102260 85
2002-04-25 12:47:01 51°11.765 2°42.729 4.8 132 11.1 102260 85
2002-04-25 12:47:06 51°11.765 2°42.732 5.4 121 11.1 102260 85
2002-04-25 12:47:11 51°11.765 2°42.734 5.1 126 11.1 102260 85
2002-04-25 12:47:16 51°11.765 2°42.737 5.8 123 11.1 102260 85
2002-04-25 12:47:21 51°11.765 2°42.739 5.1 126 11.1 102260 85
2002-04-25 12:47:26 51°11.765 2°42.742 4.9 124 11.1 102260 85
2002-04-25 12:47:31 51°11.765 2°42.744 5.4 130 11.2 102260 85
2002-04-25 12:47:36 51°11.765 2°42.746 4.6 131 11.2 102260 85
2002-04-25 12:47:41 51°11.766 2°42.749 5.1 128 11.1 102260 85
2002-04-25 12:47:46 51°11.766 2°42.751 5.5 131 11.1 102260 85
2002-04-25 12:47:51 51°11.766 2°42.753 5.4 132 11.2 102260 85
2002-04-25 12:47:56 51°11.766 2°42.756 5 129 11.2 102260 85
2002-04-25 12:48:01 51°11.766 2°42.758 4.9 127 11.1 102260 85
2002-04-25 12:48:06 51°11.766 2°42.76 5.6 137 11.1 102260 85
2002-04-25 12:48:11 51°11.766 2°42.762 5.2 138 11.2 102260 85
2002-04-25 12:48:15 51°11.767 2°42.764 5.9 134 11.2 102260 85
2002-04-25 12:48:20 51°11.767 2°42.766 4.9 136 11.2 102260 85
2002-04-25 12:48:26 51°11.767 2°42.769 5.7 134 11.2 102260 85
2002-04-25 12:48:31 51°11.767 2°42.771 5.1 135 11.2 102260 85
2002-04-25 12:48:36 51°11.768 2°42.773 5.7 135 11.2 102260 85
2002-04-25 12:48:41 51°11.768 2°42.775 5.3 132 11.2 102250 85
2002-04-25 12:48:45 51°11.768 2°42.777 4.6 133 11.2 102250 85
2002-04-25 12:48:51 51°11.769 2°42.779 5.3 135 11.2 102260 85
2002-04-25 12:48:56 51°11.769 2°42.781 5.6 128 11.2 102260 85
2002-04-25 12:49:01 51°11.769 2°42.783 5.3 129 11.2 102260 85
2002-04-25 12:49:06 51°11.769 2°42.786 4.9 137 11.2 102260 85
2002-04-25 12:49:10 51°11.769 2°42.787 4.9 135 11.2 102260 85
2002-04-25 12:49:15 51°11.77 2°42.789 5.4 130 11.2 102260 85
2002-04-25 12:49:21 51°11.77 2°42.792 5.1 134 11.2 102260 85
2002-04-25 12:49:26 51°11.77 2°42.794 4.8 138 11.2 102260 85
2002-04-25 12:49:31 51°11.77 2°42.796 4.9 142 11.2 102260 85
2002-04-25 12:49:36 51°11.77 2°42.798 4.3 139 11.2 102260 85
2002-04-25 12:49:41 51°11.771 2°42.8 4.2 135 11.2 102250 85
2002-04-25 12:49:45 51°11.771 2°42.801 4.7 139 11.2 102250 85
2002-04-25 12:49:50 51°11.771 2°42.803 5 133 11.2 102250 85
2002-04-25 12:49:56 51°11.772 2°42.805 5.4 134 11.2 102250 85
2002-04-25 12:50:01 51°11.772 2°42.807 4.6 126 11.2 102260 85
2002-04-25 12:50:06 51°11.772 2°42.809 4.7 134 11.2 102260 85
2002-04-25 12:50:11 51°11.772 2°42.811 5.3 136 11.2 102250 85
2002-04-25 12:50:16 51°11.772 2°42.812 5.3 136 11.2 102250 85
2002-04-25 12:50:21 51°11.773 2°42.814 5.3 139 11.2 102260 85
2002-04-25 12:50:26 51°11.773 2°42.816 4.4 145 11.2 102260 85
2002-04-25 12:50:31 51°11.773 2°42.819 5.1 139 11.2 102250 85
2002-04-25 12:50:36 51°11.773 2°42.82 5.3 139 11.2 102250 85
2002-04-25 12:50:41 51°11.774 2°42.822 5.2 139 11.2 102250 85
2002-04-25 12:50:46 51°11.774 2°42.824 4.5 143 11.2 102250 85
2002-04-25 12:50:51 51°11.774 2°42.826 5.1 148 11.2 102250 85
2002-04-25 12:50:56 51°11.775 2°42.828 4.8 148 11.2 102250 85
2002-04-25 12:51:00 51°11.775 2°42.829 5.4 148 11.2 102250 85
2002-04-25 12:51:06 51°11.775 2°42.832 5.3 146 11.2 102250 85
2002-04-25 12:51:11 51°11.775 2°42.834 4.9 147 11.2 102250 85
2002-04-25 12:51:16 51°11.776 2°42.836 4.5 146 11.2 102250 85
2002-04-25 12:51:21 51°11.776 2°42.837 4.2 145 11.2 102250 85
2002-04-25 12:51:25 51°11.776 2°42.839 4.2 149 11.2 102250 85
2002-04-25 12:51:31 51°11.777 2°42.841 4.9 147 11.2 102250 85
2002-04-25 12:51:36 51°11.777 2°42.843 5.5 143 11.2 102250 85
2002-04-25 12:51:40 51°11.777 2°42.844 4.8 147 11.2 102250 85
2002-04-25 12:51:46 51°11.777 2°42.846 4.2 148 11.2 102250 85
2002-04-25 12:51:51 51°11.778 2°42.849 5.1 146 11.2 102250 85
2002-04-25 12:51:56 51°11.778 2°42.85 5.5 155 11.2 102250 85
2002-04-25 12:52:01 51°11.778 2°42.852 5.1 152 11.2 102250 85
2002-04-25 12:52:05 51°11.778 2°42.854 5.9 154 11.2 102250 85
2002-04-25 12:52:11 51°11.779 2°42.856 5.5 150 11.2 102250 85
2002-04-25 12:52:15 51°11.779 2°42.857 5.1 148 11.2 102250 85
2002-04-25 12:52:21 51°11.779 2°42.859 4.9 146 11.2 102250 85
2002-04-25 12:52:26 51°11.779 2°42.861 4.7 147 11.2 102250 85
2002-04-25 12:52:31 51°11.78 2°42.863 4.5 147 11.2 102250 85
2002-04-25 12:52:36 51°11.78 2°42.865 4.8 148 11.2 102250 85
2002-04-25 12:52:40 51°11.78 2°42.866 4.9 147 11.2 102250 85
2002-04-25 12:52:45 51°11.78 2°42.868 5 154 11.2 102250 85
2002-04-25 12:52:51 51°11.781 2°42.87 4.5 151 11.2 102250 85
2002-04-25 12:52:56 51°11.781 2°42.872 4.7 155 11.2 102250 85
2002-04-25 12:53:01 51°11.781 2°42.874 5.5 150 11.2 102250 85
2002-04-25 12:53:05 51°11.781 2°42.876 5.1 152 11.2 102250 85
2002-04-25 12:53:11 51°11.782 2°42.878 5.5 151 11.2 102250 85
2002-04-25 12:53:16 51°11.782 2°42.879 5.5 154 11.2 102250 85
2002-04-25 12:53:21 51°11.782 2°42.881 6 151 11.2 102250 85
2002-04-25 12:53:25 51°11.782 2°42.882 5.9 146 11.2 102250 85
2002-04-25 12:53:31 51°11.783 2°42.885 5.9 149 11.2 102250 85
2002-04-25 12:53:36 51°11.783 2°42.886 5.3 151 11.2 102250 85
2002-04-25 12:53:41 51°11.783 2°42.888 5.1 151 11.2 102250 85
2002-04-25 12:53:46 51°11.783 2°42.89 5.5 146 11.2 102250 85
2002-04-25 12:53:51 51°11.784 2°42.892 5.4 148 11.1 102250 85
2002-04-25 12:53:56 51°11.784 2°42.893 4.8 153 11.1 102250 85
2002-04-25 12:54:01 51°11.784 2°42.895 5.1 154 11.2 102250 85
2002-04-25 12:54:06 51°11.784 2°42.897 4.6 156 11.2 102250 85
2002-04-25 12:54:11 51°11.784 2°42.899 5.1 154 11.1 102250 85
2002-04-25 12:54:16 51°11.785 2°42.9 4.8 156 11.1 102250 85
2002-04-25 12:54:21 51°11.785 2°42.902 5.8 159 11.2 102250 85
2002-04-25 12:54:26 51°11.785 2°42.904 5.5 155 11.2 102250 85
2002-04-25 12:54:31 51°11.785 2°42.906 5.2 154 11.2 102250 86
2002-04-25 12:54:36 51°11.786 2°42.908 5 156 11.2 102250 86
2002-04-25 12:54:41 51°11.786 2°42.909 5.2 161 11.2 102250 86
2002-04-25 12:54:46 51°11.786 2°42.911 5.5 161 11.2 102250 86
2002-04-25 12:54:51 51°11.787 2°42.913 5.8 162 11.2 102250 86
2002-04-25 12:54:56 51°11.787 2°42.915 5.5 156 11.2 102250 86
2002-04-25 12:55:01 51°11.787 2°42.916 5.4 158 11.1 102250 85
2002-04-25 12:55:06 51°11.787 2°42.918 4.8 156 11.1 102250 85
2002-04-25 12:55:11 51°11.787 2°42.92 5.1 158 11.1 102250 85
2002-04-25 12:55:16 51°11.788 2°42.922 5.2 154 11.1 102250 85
2002-04-25 12:55:21 51°11.788 2°42.924 5.4 154 11.1 102250 85
2002-04-25 12:55:26 51°11.788 2°42.926 5.1 155 11.1 102250 85
2002-04-25 12:55:31 51°11.788 2°42.927 4.9 152 11.1 102250 85
2002-04-25 12:55:36 51°11.789 2°42.929 5.7 155 11.1 102250 85
2002-04-25 12:55:41 51°11.789 2°42.931 5.4 155 11.1 102250 85
2002-04-25 12:55:46 51°11.789 2°42.933 5.3 155 11.1 102250 85
2002-04-25 12:55:51 51°11.789 2°42.934 4.7 161 11.1 102250 85
2002-04-25 12:55:56 51°11.79 2°42.936 5.5 157 11.1 102250 85
2002-04-25 12:56:01 51°11.79 2°42.938 5.2 164 11.1 102250 85
2002-04-25 12:56:06 51°11.79 2°42.939 4.9 158 11.1 102250 85
2002-04-25 12:56:11 51°11.79 2°42.941 5.4 169 11.1 102240 85
2002-04-25 12:56:16 51°11.79 2°42.943 5.2 161 11.1 102240 85
2002-04-25 12:56:21 51°11.791 2°42.945 5 166 11.1 102250 85
2002-04-25 12:56:26 51°11.791 2°42.947 5.9 170 11.1 102250 85
2002-04-25 12:56:31 51°11.791 2°42.948 5.7 161 11.1 102250 85
2002-04-25 12:56:36 51°11.792 2°42.95 5.7 161 11.1 102250 85
2002-04-25 12:56:41 51°11.792 2°42.951 5.2 156 11.1 102240 85
2002-04-25 12:56:46 51°11.793 2°42.953 5 154 11.1 102240 85
2002-04-25 12:56:51 51°11.793 2°42.955 4.6 163 11.1 102250 85
2002-04-25 12:56:56 51°11.793 2°42.957 5.6 164 11.1 102250 85
2002-04-25 12:57:01 51°11.793 2°42.958 5.1 160 11.1 102250 84
2002-04-25 12:57:06 51°11.793 2°42.96 5.6 163 11.1 102250 84
2002-04-25 12:57:11 51°11.794 2°42.961 5 163 11.1 102250 85
2002-04-25 12:57:16 51°11.794 2°42.963 5.1 156 11.1 102250 85
2002-04-25 12:57:21 51°11.794 2°42.963 4.8 165 11.1 102250 85
2002-04-25 12:57:26 51°11.794 2°42.965 5.1 167 11.1 102250 85
2002-04-25 12:57:31 51°11.794 2°42.965 5.7 163 11.1 102250 84
2002-04-25 12:57:36 51°11.794 2°42.966 5.7 160 11.1 102250 84
2002-04-25 12:57:40 51°11.794 2°42.966 4.8 168 11.1 102250 84
2002-04-25 12:57:46 51°11.794 2°42.967 4.5 172 11.1 102250 84
2002-04-25 12:57:51 51°11.793 2°42.967 5.4 174 11.1 102250 84
2002-04-25 12:57:56 51°11.793 2°42.968 5.8 175 11.1 102250 84
2002-04-25 12:58:01 51°11.793 2°42.968 5.2 177 11.1 102250 84
2002-04-25 12:58:06 51°11.793 2°42.967 5.8 173 11.1 102250 84
2002-04-25 12:58:11 51°11.792 2°42.966 4.6 180 11.1 102250 84
2002-04-25 12:58:16 51°11.791 2°42.965 6 175 11.1 102250 84
2002-04-25 12:58:21 51°11.79 2°42.963 4.7 182 11.1 102250 84
2002-04-25 12:58:26 51°11.789 2°42.96 5.3 187 11.1 102250 84
2002-04-25 12:58:31 51°11.788 2°42.957 5.4 186 11.1 102250 84
2002-04-25 12:58:36 51°11.787 2°42.954 5.5 188 11.1 102250 84
2002-04-25 12:58:41 51°11.786 2°42.95 6.5 195 11.1 102250 84
2002-04-25 12:58:46 51°11.785 2°42.946 5.9 196 11.1 102250 84
2002-04-25 12:58:51 51°11.784 2°42.942 6 189 11.1 102250 84
2002-04-25 12:58:56 51°11.784 2°42.937 5.6 187 11.1 102250 84
2002-04-25 12:59:01 51°11.783 2°42.932 5.5 199 11.1 102240 84
2002-04-25 12:59:06 51°11.782 2°42.926 5.5 193 11.1 102240 84
2002-04-25 12:59:11 51°11.782 2°42.92 5.7 199 11 102250 84
2002-04-25 12:59:16 51°11.782 2°42.914 6.5 202 11 102250 84
2002-04-25 12:59:21 51°11.782 2°42.908 6.5 207 11 102250 84
2002-04-25 12:59:26 51°11.782 2°42.901 6.5 213 11 102250 84
2002-04-25 12:59:31 51°11.782 2°42.894 6.3 210 11.1 102240 84
2002-04-25 12:59:36 51°11.782 2°42.887 6.3 210 11.1 102240 84
2002-04-25 12:59:41 51°11.783 2°42.88 7.3 213 11.1 102240 84
2002-04-25 12:59:46 51°11.784 2°42.873 6.8 217 11.1 102240 84
2002-04-25 12:59:51 51°11.785 2°42.865 7.4 219 11.1 102240 85
2002-04-25 12:59:56 51°11.786 2°42.858 7.4 219 11.1 102240 85
2002-04-25 13:00:01 51°11.787 2°42.85 7.1 221 11.1 102240 85
2002-04-25 13:00:06 51°11.789 2°42.843 7.4 219 11.1 102240 85
2002-04-25 13:00:11 51°11.791 2°42.835 7.1 225 11.1 102240 85
2002-04-25 13:00:16 51°11.793 2°42.828 7 228 11.1 102240 85
2002-04-25 13:00:21 51°11.796 2°42.821 7.3 225 11.1 102240 85
2002-04-25 13:00:26 51°11.799 2°42.814 7.2 226 11.1 102240 85
2002-04-25 13:00:31 51°11.801 2°42.806 6.6 229 11.2 102240 85
2002-04-25 13:00:36 51°11.804 2°42.799 6.6 229 11.2 102240 85
2002-04-25 13:00:41 51°11.808 2°42.792 7.9 231 11.2 102240 85
2002-04-25 13:00:46 51°11.811 2°42.785 7.6 231 11.2 102240 85
2002-04-25 13:00:51 51°11.814 2°42.778 6.8 232 11.2 102250 85
2002-04-25 13:00:56 51°11.817 2°42.771 6.9 234 11.2 102250 85
2002-04-25 13:01:01 51°11.821 2°42.763 7.3 231 11.2 102250 85
2002-04-25 13:01:06 51°11.824 2°42.756 7.1 232 11.2 102250 85
2002-04-25 13:01:11 51°11.828 2°42.749 6.7 232 11.2 102240 84
2002-04-25 13:01:16 51°11.832 2°42.742 7.3 232 11.2 102240 84
2002-04-25 13:01:21 51°11.835 2°42.735 7.5 234 11.3 102250 84
2002-04-25 13:01:25 51°11.839 2°42.73 8.2 233 11.3 102250 84
2002-04-25 13:01:31 51°11.844 2°42.722 7.8 233 11.3 102250 84
2002-04-25 13:01:36 51°11.848 2°42.716 8.1 235 11.3 102250 84
2002-04-25 13:01:40 51°11.851 2°42.711 7.7 234 11.3 102250 84
2002-04-25 13:01:46 51°11.857 2°42.703 7.6 232 11.3 102250 84
2002-04-25 13:01:51 51°11.861 2°42.697 8.1 236 11.3 102240 84
2002-04-25 13:01:56 51°11.864 2°42.691 7.6 231 11.3 102240 84
2002-04-25 13:02:01 51°11.868 2°42.685 7.1 233 11.3 102240 84
2002-04-25 13:02:06 51°11.871 2°42.679 7.8 232 11.3 102240 84
2002-04-25 13:02:11 51°11.875 2°42.673 7.5 233 11.3 102240 84
2002-04-25 13:02:16 51°11.879 2°42.667 7.3 232 11.3 102240 84
2002-04-25 13:02:21 51°11.882 2°42.661 6.9 234 11.3 102240 83
2002-04-25 13:02:26 51°11.886 2°42.655 6.6 232 11.3 102240 83
2002-04-25 13:02:31 51°11.89 2°42.649 7.1 233 11.3 102240 83
2002-04-25 13:02:36 51°11.894 2°42.644 7.2 235 11.3 102240 83
2002-04-25 13:02:41 51°11.897 2°42.638 6.6 236 11.3 102240 83
2002-04-25 13:02:46 51°11.9 2°42.633 6.9 234 11.3 102240 83
2002-04-25 13:02:51 51°11.904 2°42.627 6.5 226 11.3 102240 84
2002-04-25 13:02:56 51°11.906 2°42.622 6.5 225 11.3 102240 84
2002-04-25 13:03:01 51°11.909 2°42.617 5.9 215 11.4 102240 84
2002-04-25 13:03:06 51°11.911 2°42.612 6.6 213 11.4 102240 84
2002-04-25 13:03:11 51°11.913 2°42.607 5.8 212 11.4 102240 84
2002-04-25 13:03:16 51°11.914 2°42.602 6.5 209 11.4 102240 84
2002-04-25 13:03:21 51°11.916 2°42.597 5.5 206 11.4 102240 84
2002-04-25 13:03:26 51°11.916 2°42.593 6 203 11.4 102240 84
2002-04-25 13:03:31 51°11.917 2°42.589 6.8 198 11.4 102240 84
2002-04-25 13:03:36 51°11.918 2°42.585 6.4 196 11.4 102240 84
2002-04-25 13:03:41 51°11.918 2°42.581 6.3 201 11.4 102240 84
2002-04-25 13:03:46 51°11.918 2°42.577 6.3 190 11.4 102240 84
2002-04-25 13:03:51 51°11.917 2°42.574 5.8 183 11.3 102240 84
2002-04-25 13:03:56 51°11.917 2°42.57 4.5 183 11.3 102240 84
2002-04-25 13:04:01 51°11.916 2°42.567 4.7 181 11.3 102240 84
2002-04-25 13:04:06 51°11.915 2°42.563 4.3 181 11.3 102240 84
2002-04-25 13:04:11 51°11.914 2°42.559 4.8 180 11.3 102240 84
2002-04-25 13:04:16 51°11.912 2°42.556 5.3 177 11.3 102240 84
2002-04-25 13:04:20 51°11.91 2°42.553 6 176 11.3 102240 84
2002-04-25 13:04:26 51°11.908 2°42.549 6.5 174 11.3 102240 84
2002-04-25 13:04:31 51°11.906 2°42.545 6.3 174 11.2 102240 84
2002-04-25 13:04:36 51°11.903 2°42.542 5.7 171 11.2 102240 84
2002-04-25 13:04:41 51°11.9 2°42.539 6.2 168 11.2 102230 84
2002-04-25 13:04:46 51°11.897 2°42.535 6.3 164 11.2 102230 84
2002-04-25 13:04:51 51°11.894 2°42.533 5.3 161 11.2 102240 84
2002-04-25 13:04:56 51°11.891 2°42.53 4.9 163 11.2 102240 84
2002-04-25 13:05:01 51°11.887 2°42.527 5.3 157 11.2 102240 85
2002-04-25 13:05:06 51°11.883 2°42.525 5.3 163 11.2 102240 85
2002-04-25 13:05:11 51°11.88 2°42.523 5 154 11.1 102240 85
2002-04-25 13:05:16 51°11.876 2°42.522 5.6 154 11.1 102240 85
2002-04-25 13:05:21 51°11.872 2°42.521 5.2 154 11.2 102240 85
2002-04-25 13:05:26 51°11.868 2°42.519 5.2 156 11.2 102240 85
2002-04-25 13:05:31 51°11.864 2°42.518 4.7 157 11.2 102240 85
2002-04-25 13:05:36 51°11.86 2°42.518 5.3 152 11.2 102240 85
2002-04-25 13:05:41 51°11.856 2°42.517 5 152 11.1 102240 85
2002-04-25 13:05:46 51°11.852 2°42.516 5 152 11.1 102240 85
2002-04-25 13:05:51 51°11.847 2°42.515 4.6 154 11.1 102230 85
2002-04-25 13:05:56 51°11.843 2°42.515 4.6 156 11.1 102230 85
2002-04-25 13:06:00 51°11.84 2°42.514 5.3 161 11.1 102240 85
2002-04-25 13:06:06 51°11.836 2°42.513 4.6 157 11.1 102240 85
2002-04-25 13:06:11 51°11.832 2°42.511 4.3 158 11.1 102240 84
2002-04-25 13:06:16 51°11.829 2°42.509 5 167 11.1 102240 84
2002-04-25 13:06:21 51°11.825 2°42.507 4.9 167 11.1 102240 85
2002-04-25 13:06:26 51°11.822 2°42.506 5.1 161 11.1 102240 85
2002-04-25 13:06:31 51°11.819 2°42.504 5.5 164 11.1 102240 85
2002-04-25 13:06:36 51°11.816 2°42.501 4.9 170 11.1 102240 85
2002-04-25 13:06:40 51°11.813 2°42.5 5.2 169 11.1 102240 85
2002-04-25 13:06:46 51°11.81 2°42.497 6.1 166 11.1 102240 85
2002-04-25 13:06:51 51°11.807 2°42.495 5.6 163 11.1 102240 85
2002-04-25 13:06:56 51°11.804 2°42.492 5.7 167 11.1 102240 85
2002-04-25 13:07:01 51°11.801 2°42.49 5.3 167 11.1 102240 85
2002-04-25 13:07:06 51°11.798 2°42.488 5.5 157 11.1 102240 85
2002-04-25 13:07:11 51°11.795 2°42.486 4.6 156 11.1 102240 85
2002-04-25 13:07:16 51°11.792 2°42.485 4.9 154 11.1 102240 85
2002-04-25 13:07:21 51°11.789 2°42.483 4.9 151 11.1 102240 85
2002-04-25 13:07:26 51°11.786 2°42.481 5 154 11.1 102240 85
2002-04-25 13:07:31 51°11.783 2°42.479 4.2 155 11.1 102240 85
2002-04-25 13:07:36 51°11.78 2°42.477 4.3 157 11.1 102240 85
2002-04-25 13:07:41 51°11.777 2°42.476 4.7 147 11.1 102240 85
2002-04-25 13:07:46 51°11.773 2°42.475 4.3 150 11.1 102240 85
2002-04-25 13:07:51 51°11.77 2°42.474 4.9 162 11.1 102240 85
2002-04-25 13:07:56 51°11.767 2°42.472 4.6 148 11.1 102240 85
2002-04-25 13:08:01 51°11.764 2°42.471 5.2 157 11.1 102240 85
2002-04-25 13:08:06 51°11.76 2°42.471 4.2 140 11.1 102240 85
2002-04-25 13:08:11 51°11.757 2°42.47 4.2 145 11.1 102240 85
2002-04-25 13:08:16 51°11.754 2°42.469 5.1 141 11.1 102240 85
2002-04-25 13:08:20 51°11.751 2°42.469 5.3 147 11.1 102240 85